Dewpoint
66 68 70 74 74 72 72 72 72 72 72 72 72 72 72 72 72 72 72 72 73 73 73 72 72 72 72 72 72 72 72 72 72 72 72 72 72 72 71 71 72 72 72 72 72 71 71 71 71 71 71 71 71 71 71 71 71 71 71 71 71 71 71 71 71 71 71 70 70 70 70 71 71 70 69 69 68 68 68 67 66 63 64 66 67
67 68 71 73 74 73 72 72 72 72 72 72 72 72 72 72 72 72 72 73 73 73 72 73 73 72 72 72 72 72 72 71 71 72 72 72 72 72 72 71 72 71 71 71 71 71 71 71 71 71 71 71 71 71 71 70 71 71 71 71 71 71 71 71 71 71 71 71 71 71 70 70 69 69 69 68 68 69 69 67 67 64 64 66 66
68 70 71 72 74 73 72 72 72 72 72 72 72 72 71 71 72 72 72 73 73 73 73 72 72 72 72 72 72 72 72 71 72 72 72 72 72 72 72 71 71 71 71 71 71 71 71 70 70 70 70 70 70 71 71 71 71 71 71 71 71 71 70 71 71 71 70 70 70 70 70 70 68 68 69 69 68 67 66 67 66 64 65 66 66
67 69 70 73 73 73 72 71 72 72 72 72 72 72 72 72 73 73 73 73 73 72 72 72 72 72 72 72 72 71 71 71 72 72 72 72 72 72 71 71 70 70 71 71 71 71 71 70 70 70 70 69 69 70 70 70 70 70 71 71 71 71 71 69 69 68 68 68 68 66 66 65 68 68 68 68 67 67 66 66 66 66 66 66 66
67 69 70 72 72 72 72 72 72 72 72 72 72 72 72 72 73 73 73 73 72 73 73 73 72 72 72 72 72 71 71 71 72 72 72 72 72 71 71 71 71 70 70 70 70 70 70 71 71 71 70 70 69 69 69 69 69 70 70 70 70 71 71 70 70 69 68 68 68 67 66 64 65 67 68 67 67 67 66 65 65 65 64 64 65
68 69 70 71 70 71 72 72 72 71 72 72 72 72 72 73 73 73 73 73 73 73 73 72 72 72 71 72 71 71 71 71 72 72 72 72 72 71 71 70 70 70 70 70 70 70 70 70 70 71 70 70 70 69 69 69 69 70 70 70 70 69 69 69 69 70 69 69 68 68 66 66 64 63 67 67 67 67 67 67 66 65 65 65 65
68 70 70 71 69 70 72 72 72 72 72 72 72 72 73 72 73 73 73 73 73 73 72 72 72 72 71 71 71 71 71 71 71 72 72 72 72 72 71 71 70 70 70 71 70 70 70 70 70 71 70 69 69 69 69 69 69 70 70 70 70 70 70 70 70 70 69 70 68 67 66 65 65 63 69 66 66 66 67 67 65 65 65 63 64
69 69 70 70 70 71 72 72 72 71 71 71 71 72 73 73 73 73 73 73 73 72 72 72 72 71 71 71 71 71 71 71 71 71 72 72 72 72 71 71 70 69 69 70 70 70 70 70 70 70 70 69 69 69 69 69 69 70 70 70 70 70 71 71 71 71 71 68 67 67 67 65 65 63 66 67 66 66 66 66 65 65 65 64 64
68 69 70 70 70 71 72 72 72 72 71 72 72 72 72 73 73 73 73 73 73 72 72 72 71 71 71 71 71 71 71 71 71 71 71 71 71 71 71 71 71 70 69 69 70 70 70 70 70 70 69 69 70 70 69 69 69 69 70 70 71 71 71 71 71 70 68 66 66 66 67 64 65 64 65 67 66 67 66 66 66 65 65 64 64
68 70 70 70 69 72 72 72 72 72 71 72 72 72 72 73 73 73 73 73 72 72 72 71 71 71 71 70 70 70 70 70 70 71 71 70 70 70 71 70 70 71 70 70 69 69 69 70 69 70 70 70 70 70 70 69 70 70 70 70 70 71 71 71 70 68 66 66 64 65 67 67 63 63 62 67 67 66 66 67 66 65 65 63 64
69 70 70 70 69 72 72 72 72 71 71 72 72 72 72 73 73 73 73 72 72 72 71 71 71 70 70 70 69 69 69 70 70 71 71 71 71 70 70 71 71 71 70 70 70 70 69 69 69 69 69 69 70 70 70 70 70 70 70 70 70 71 71 70 70 63 64 63 64 66 66 69 67 65 64 68 67 67 67 67 67 66 65 65 64
67 69 70 70 72 72 72 72 72 72 71 72 72 72 73 73 73 73 72 72 72 71 71 71 70 70 69 69 69 69 69 69 70 70 71 70 71 70 70 71 71 70 70 70 70 70 70 68 68 68 69 69 69 69 69 70 70 70 70 70 70 71 71 70 66 63 64 63 63 67 63 66 66 64 66 68 67 67 67 67 67 66 66 66 66
67 67 70 71 71 72 72 72 72 72 72 72 72 73 73 73 73 72 72 72 72 71 71 70 69 69 68 68 69 69 69 69 69 69 70 70 70 70 70 70 70 70 70 69 70 70 70 70 69 68 69 68 68 69 69 69 70 69 69 70 70 69 70 70 64 63 61 63 65 67 65 68 67 68 68 68 68 67 67 67 67 66 66 66 66
66 68 70 71 71 72 72 72 72 72 72 72 72 73 73 73 72 72 72 72 72 71 70 69 69 68 68 68 68 69 68 68 68 68 68 70 70 70 70 69 69 69 69 69 69 70 70 70 70 69 69 69 69 68 69 69 68 68 68 68 69 69 69 69 68 63 62 62 66 64 66 68 67 69 69 69 69 68 68 67 67 67 66 66 66
67 70 70 70 70 71 72 72 72 72 72 73 73 73 73 73 72 72 72 71 71 70 70 69 69 69 68 68 68 68 67 67 67 67 67 68 68 69 69 69 69 69 68 68 68 69 69 69 69 70 70 70 69 70 69 69 68 68 68 68 67 67 68 65 60 61 60 62 63 64 64 66 69 69 69 69 70 69 68 68 67 67 67 67 66
68 69 69 70 69 70 71 72 72 72 73 73 73 73 73 73 72 72 72 71 71 70 70 70 69 69 68 68 68 68 67 67 67 67 66 67 68 69 69 69 69 69 68 68 68 68 69 69 69 69 70 70 70 70 69 69 69 69 69 68 68 67 67 69 61 60 61 62 63 64 65 65 69 68 69 69 69 69 69 68 68 68 67 67 67
68 69 69 69 69 69 69 70 71 73 73 73 73 73 73 72 72 72 72 71 71 70 69 69 69 69 68 68 68 68 68 67 67 67 66 67 67 68 68 68 68 68 69 68 68 69 69 69 69 69 69 69 69 69 70 69 70 70 69 69 69 68 68 69 63 62 61 61 61 62 64 63 68 69 69 69 69 70 69 69 68 68 68 67 67
69 67 68 68 68 68 69 70 70 72 72 73 73 73 72 72 72 72 71 71 70 69 69 69 69 69 69 69 69 68 68 68 67 67 67 67 67 67 67 67 68 67 68 67 67 68 68 68 68 68 68 69 69 70 70 70 70 70 70 69 69 69 68 69 64 63 62 62 62 63 63 68 68 69 69 69 69 69 69 69 68 68 68 68 67
68 68 67 68 67 68 68 70 71 70 72 72 72 73 72 72 72 71 71 70 70 71 70 70 69 69 69 69 69 69 69 69 68 67 67 67 66 67 66 67 66 66 66 66 67 67 67 68 68 68 69 70 70 70 70 70 70 70 70 70 69 69 67 65 63 63 63 64 63 63 65 68 68 69 69 69 69 69 69 69 68 68 67 68 68
68 68 69 68 68 69 69 70 70 71 71 71 72 72 72 72 72 71 71 70 69 71 70 69 69 69 70 69 70 70 69 69 69 68 68 68 67 67 67 66 66 66 65 66 67 67 68 69 69 70 70 70 71 71 71 70 70 69 69 69 69 69 67 65 64 64 64 64 65 66 66 68 68 69 69 69 69 69 70 69 69 68 68 68 67
67 68 69 68 69 70 69 69 70 71 70 71 72 71 71 72 72 71 70 69 70 70 69 69 69 70 70 71 70 70 69 69 69 68 69 69 69 69 69 68 68 68 68 68 69 69 69 70 70 70 70 71 71 70 70 69 69 69 69 69 69 68 67 67 66 65 65 65 66 63 66 67 68 69 70 70 70 70 70 70 70 69 68 68 67
65 66 68 69 69 70 70 69 69 70 70 71 71 71 71 71 71 71 70 70 70 69 69 69 69 70 70 69 69 68 69 69 70 70 69 69 69 70 69 69 69 69 69 69 70 70 70 70 70 70 70 70 69 70 70 69 68 68 68 69 67 66 68 67 67 65 65 65 66 66 66 67 68 68 69 70 70 70 70 70 70 70 69 68 68
63 64 67 68 68 69 69 69 70 70 71 70 71 71 71 70 70 69 69 69 70 69 69 69 69 69 68 68 69 69 69 69 70 71 71 71 71 70 70 70 69 69 69 70 70 70 70 70 70 69 69 69 70 68 67 66 67 69 69 69 66 66 67 67 66 66 64 65 65 68 68 68 68 69 69 69 70 70 70 70 70 69 69 68 68
63 64 65 68 68 68 69 69 70 70 70 70 71 70 70 70 69 69 68 69 70 69 69 69 69 69 68 69 69 69 69 70 69 70 71 70 70 71 71 70 70 70 70 70 69 69 69 69 69 68 69 68 67 66 65 65 65 67 67 66 66 65 66 65 64 65 65 64 63 67 68 68 68 69 69 70 69 70 70 70 70 69 69 68 67
63 64 65 67 68 68 69 69 70 70 70 69 70 69 70 69 69 68 68 69 68 69 69 69 69 69 69 69 69 69 69 69 70 71 70 71 70 70 71 71 71 70 69 71 71 69 70 68 68 68 67 67 66 67 67 66 67 66 66 66 66 66 65 65 64 64 64 65 66 68 68 69 69 69 69 69 70 70 70 70 70 70 69 68 67
64 63 64 66 67 68 68 69 70 70 70 70 70 70 70 69 69 69 67 68 68 68 68 69 69 69 69 69 69 70 69 70 71 71 70 70 69 69 69 70 70 70 70 69 69 69 68 68 68 67 67 67 67 67 67 66 66 65 65 66 66 65 64 63 63 64 65 65 65 66 67 68 68 69 69 69 69 69 69 69 70 69 69 69 68
62 63 64 65 66 68 68 69 69 70 70 70 70 69 69 69 68 68 67 67 68 67 67 68 68 69 69 70 69 69 69 69 70 70 69 70 69 68 68 69 70 69 70 69 69 69 68 67 67 67 67 65 64 64 64 64 65 63 63 63 64 63 64 63 63 63 64 65 66 66 67 67 68 68 68 69 69 69 69 70 70 69 69 68 66
62 62 64 65 66 67 68 69 69 70 70 70 70 69 69 69 69 69 68 67 67 67 67 68 69 69 69 70 70 69 69 69 70 69 68 69 69 70 69 68 68 68 69 69 67 67 67 67 67 66 64 64 62 63 62 61 62 64 62 63 63 64 64 64 64 64 64 65 65 66 67 67 68 68 68 69 69 69 69 70 69 69 68 68 67
63 63 64 64 64 67 67 68 69 69 70 70 69 69 69 69 69 68 68 68 68 68 67 68 68 68 70 70 70 70 69 70 70 69 69 69 70 70 69 68 69 68 69 68 68 67 67 66 66 65 65 63 63 63 62 62 63 63 62 61 63 63 64 64 64 63 64 64 65 65 66 66 67 67 68 68 69 69 70 70 69 69 68 68 67
63 63 64 64 64 68 66 68 69 68 69 69 69 69 69 69 68 69 68 68 68 68 69 68 68 68 69 70 70 70 71 70 70 70 68 69 70 71 70 69 68 68 68 68 67 67 65 65 65 65 62 62 62 63 63 61 59 62 61 62 62 63 64 63 63 62 63 64 65 65 65 66 66 66 66 67 68 68 69 69 69 69 68 68 68
64 64 63 63 64 66 66 68 68 69 70 68 69 69 69 69 68 68 68 68 68 69 68 68 68 69 70 72 72 71 72 71 70 70 69 69 69 69 69 69 68 68 68 67 68 67 66 65 64 64 63 62 62 62 61 61 60 59 63 61 62 63 62 63 62 62 62 63 64 65 64 65 65 65 66 66 66 67 68 68 68 69 68 68 68
64 64 64 63 64 66 65 67 68 69 69 69 69 69 68 68 69 68 68 68 69 68 68 68 69 70 71 71 71 71 71 71 71 71 70 69 68 68 68 68 68 67 67 66 66 66 64 63 65 66 66 64 62 62 64 62 61 62 62 60 62 62 61 61 61 62 62 63 63 64 65 64 64 64 65 65 65 66 67 67 68 68 68 68 67
64 65 64 64 65 66 65 67 68 69 70 69 68 69 68 68 68 69 68 68 69 69 69 69 71 71 71 71 72 72 72 71 71 71 70 69 69 69 68 68 67 67 67 67 66 66 65 64 64 65 63 62 62 63 61 63 63 63 63 60 62 61 61 60 61 62 62 62 63 63 62 63 63 64 64 65 64 65 66 66 66 67 67 67 67
63 64 64 64 65 66 66 67 68 68 69 69 69 69 69 68 68 69 69 69 68 68 69 69 70 70 71 71 72 72 71 71 70 71 70 69 70 68 67 67 66 67 67 68 64 64 63 63 63 62 62 62 61 63 62 62 61 61 62 62 62 63 61 60 61 61 62 62 61 61 62 62 63 63 63 63 63 64 64 65 65 66 66 66 66
64 64 64 64 65 65 66 67 68 67 68 68 69 68 68 68 68 68 69 69 69 69 70 70 70 70 71 71 72 71 71 70 70 71 70 69 68 67 67 66 67 67 66 66 65 64 64 63 62 62 62 61 62 63 63 63 62 63 63 63 62 60 61 61 61 62 60 61 61 62 62 61 62 62 62 62 62 62 63 63 64 64 65 65 66
64 64 64 64 64 65 67 66 67 67 68 68 69 69 69 69 69 68 69 70 69 69 70 69 71 71 71 70 71 70 70 70 70 70 70 68 67 66 66 67 67 65 66 66 65 64 64 64 65 64 61 61 62 62 62 63 63 63 62 62 62 62 61 60 61 60 60 60 61 61 60 60 61 61 61 61 61 61 62 62 62 63 63 64 64
65 65 64 64 64 65 66 67 66 66 67 68 68 69 69 69 69 70 70 70 70 69 69 69 69 70 70 71 70 70 70 70 70 70 69 68 66 66 65 67 66 65 66 66 64 64 64 64 65 65 64 62 62 62 63 64 63 63 62 62 62 62 61 60 61 60 60 61 60 58 58 59 60 60 60 58 59 59 59 60 61 61 61 62 62
65 66 65 64 64 64 66 66 67 67 67 68 68 69 68 69 69 69 69 69 69 69 69 69 68 70 71 70 70 70 70 69 69 68 68 67 66 65 66 67 66 66 65 65 64 65 65 65 64 65 64 63 61 62 62 63 63 63 62 61 62 61 60 60 60 59 59 60 59 57 56 56 56 58 58 58 58 58 58 58 59 59 59 60 61
65 65 65 64 64 65 65 65 66 67 67 68 69 68 68 68 68 68 67 67 68 68 69 69 69 69 70 70 69 70 69 68 68 68 68 65 65 66 66 66 65 65 65 64 63 64 65 65 65 64 64 62 62 63 62 63 63 63 62 62 61 62 60 59 59 58 59 61 59 57 56 54 53 53 56 57 57 57 57 58 57 57 58 58 59
66 65 65 65 64 65 65 65 66 67 67 68 67 66 66 66 66 66 66 67 67 67 68 68 69 68 70 70 69 69 67 68 67 67 67 66 65 65 66 66 65 64 64 63 63 63 65 64 64 64 63 62 62 62 62 63 62 64 63 62 62 62 60 59 59 58 59 60 59 57 56 54 52 51 53 54 55 55 56 56 57 55 56 57 57
65 65 65 65 65 64 65 64 66 67 66 66 66 65 65 65 66 66 66 66 66 67 67 68 68 69 69 68 68 68 67 66 66 66 66 66 66 66 66 65 65 64 65 65 65 65 65 64 63 63 62 62 62 62 62 62 61 60 62 62 61 62 60 59 58 58 58 58 59 57 56 55 54 52 51 52 52 53 53 54 54 54 54 54 55
64 65 65 65 65 65 65 65 65 66 66 66 66 67 66 65 65 65 66 66 66 66 66 67 68 68 68 68 67 66 66 66 66 67 67 66 66 65 65 65 65 65 65 65 64 64 64 64 64 61 62 60 60 61 61 61 58 57 59 57 56 59 60 58 57 57 57 58 59 59 58 56 55 53 51 48 49 50 51 51 53 53 53 53 54
65 65 66 66 65 65 65 66 65 65 65 66 67 67 68 66 66 66 66 66 67 67 67 67 67 67 67 67 66 66 66 66 66 66 66 66 66 65 65 65 65 65 64 64 64 64 64 63 63 61 60 60 59 60 60 60 57 59 59 59 54 55 58 58 58 57 56 57 57 58 58 57 55 54 51 49 47 48 50 50 51 52 52 52 52
65 65 65 65 65 65 65 66 66 66 65 67 67 67 67 67 67 67 66 66 66 66 67 67 66 66 65 66 66 66 66 66 65 65 66 66 66 65 65 64 65 65 64 63 63 62 63 62 62 61 61 59 57 58 59 59 58 57 51 52 55 54 45 51 54 56 57 56 57 57 57 56 55 54 52 50 48 48 49 49 50 51 51 51 51
64 65 65 65 66 66 67 66 65 66 66 67 68 67 66 66 66 65 66 66 66 65 64 64 64 64 64 65 65 66 65 65 65 65 64 65 65 65 64 65 64 64 64 62 62 62 60 60 61 61 60 59 57 58 58 58 58 59 57 54 52 51 50 52 53 55 55 54 55 56 57 56 55 53 50 51 50 47 48 49 49 50 50 50 51
64 65 66 66 64 65 65 66 67 66 66 66 67 66 66 65 65 64 64 64 63 63 63 63 62 63 63 65 66 65 64 65 64 64 64 64 65 65 65 64 64 63 62 61 61 61 61 60 60 60 59 60 59 57 57 58 59 58 58 58 56 51 51 52 52 47 55 56 55 55 55 57 55 52 49 48 49 48 46 47 49 49 49 49 49
64 65 65 66 65 65 65 66 66 66 66 66 67 67 66 66 65 65 65 64 63 64 64 64 64 63 63 63 65 65 64 64 64 64 64 64 65 65 65 64 63 62 62 61 61 61 59 59 60 59 58 58 59 56 57 56 55 57 57 57 57 56 55 53 50 50 48 51 54 53 53 54 55 52 47 46 47 48 47 46 47 47 48 48 48
65 65 65 65 65 64 65 65 66 66 66 66 67 66 66 66 66 65 65 64 64 63 63 64 63 63 63 64 64 64 64 64 64 63 63 63 64 64 64 63 62 61 60 60 60 59 59 59 60 60 59 58 58 56 56 55 54 54 56 56 56 56 55 55 55 52 49 48 49 51 54 55 54 53 49 46 45 47 48 46 46 46 46 47 47
64 65 65 65 65 65 65 65 66 66 66 66 66 65 65 66 65 64 64 64 64 63 62 62 62 62 62 63 64 63 63 64 63 63 63 63 63 63 63 62 61 60 59 59 59 59 59 59 58 58 57 57 57 57 55 54 54 53 54 55 54 52 53 53 53 53 49 48 47 47 49 52 53 53 45 48 46 46 47 45 45 45 46 46 47
65 65 65 65 65 66 66 64 65 67 66 66 66 65 65 65 65 65 64 63 62 62 62 62 62 63 63 62 63 62 62 62 62 62 63 62 63 62 62 61 61 60 58 58 58 58 57 57 57 57 57 56 55 54 54 53 53 53 54 54 53 53 53 51 51 51 51 52 47 46 47 48 47 48 43 45 46 44 45 46 45 44 45 45 45
65 65 65 65 65 65 65 64 64 66 66 66 66 65 65 66 66 64 64 62 62 62 62 62 62 63 61 61 62 62 62 61 61 62 63 62 61 61 61 61 61 59 58 57 57 56 56 56 55 55 55 55 53 54 53 53 52 52 52 51 51 51 50 49 49 49 50 49 47 44 46 44 48 45 41 44 44 43 43 45 44 44 45 45 45